This is the latest recevied weather packets stored in our database for station/object KC0AFB. If no packets are shown the sender has not sent any weather packets the latest 10 day(s).
| Time | Temp. | Humidity | Pressure | Rain* | Wind** | Luminosity | Snow |
|---|---|---|---|---|---|---|---|
| 1777824903 | 17.78° C | 39% | 1011.9 hPa | 0 mm | - | 684 W/m² | - |
| 1777824599 | 17.78° C | 41% | 1012.2 hPa | 0 mm | - | 317 W/m² | - |
| 1777824296 | 17.22° C | 40% | 1012.2 hPa | 0 mm | - | 665 W/m² | - |
| 1777823991 | 17.22° C | 42% | 1012.1 hPa | 0 mm | - | 690 W/m² | - |
| 1777823688 | 17.22° C | 43% | 1012.3 hPa | 0 mm | - | 677 W/m² | - |
| 1777823385 | 16.67° C | 44% | 1012.3 hPa | 0 mm | - | 660 W/m² | - |
| 1777823083 | 16.11° C | 43% | 1012.2 hPa | 0 mm | - | 644 W/m² | - |
| 1777822781 | 15.56° C | 47% | 1012.3 hPa | 0 mm | - | 594 W/m² | - |
| 1777822478 | 15.56° C | 48% | 1012.6 hPa | 0 mm | - | 610 W/m² | - |
| 1777822176 | 15° C | 47% | 1012.5 hPa | 0 mm | - | 590 W/m² | - |
| 1777821872 | 15° C | 50% | 1012.6 hPa | 0 mm | - | 106 W/m² | - |
| 1777821570 | 14.44° C | 50% | 1012.6 hPa | 0 mm | - | 70 W/m² | - |
| 1777821268 | 13.89° C | 51% | 1012.9 hPa | 0 mm | - | 68 W/m² | - |
| 1777820965 | 13.33° C | 50% | 1012.9 hPa | 0 mm | - | 262 W/m² | - |
| 1777820661 | 12.78° C | 52% | 1012.9 hPa | 0 mm | - | 486 W/m² | - |
| 1777820357 | 12.78° C | 51% | 1013 hPa | 0 mm | - | 466 W/m² | - |
| 1777820055 | 12.22° C | 52% | 1013.2 hPa | 0 mm | - | 452 W/m² | - |
| 1777819751 | 12.22° C | 51% | 1013 hPa | 0 mm | - | 417 W/m² | - |
| 1777819450 | 11.67° C | 52% | 1013.3 hPa | 0 mm | - | 394 W/m² | - |
| 1777819148 | 11.11° C | 53% | 1013 hPa | 0 mm | - | 368 W/m² | - |
| 1777818844 | 11.11° C | 55% | 1013.4 hPa | 0 mm | - | 332 W/m² | - |
| 1777818540 | 10.56° C | 55% | 1013.5 hPa | 0 mm | - | 324 W/m² | - |
| 1777818238 | 10.56° C | 55% | 1013.5 hPa | 0 mm | - | 302 W/m² | - |
| 1777817933 | 10.56° C | 55% | 1013.7 hPa | 0 mm | - | 285 W/m² | - |
| 1777817631 | 10° C | 56% | 1013.5 hPa | 0 mm | - | 270 W/m² | - |
* Rain latest hour (hover to see other rain measurements)
** Current wind speed in m/s (hover to see current wind gust speed)